User: anonymous   Login
Location: Churchill
(58.7670°N, 94.1670°W)
Time: 23:18:08
(UTC-05:00)
Language:

Cosmos 1315 Rocket - Orbit

View from above orbital plane
View from above orbital plane
View from above satellite
View from above satellite

Ground track
Ground track

The orbit data is extracted from the following two-line orbital elements,

1 12904U 81103B   16243.20303014  .00000083  00000-0  42414-5 0  9999
2 12904  81.1746 247.8233 0027324 304.1524  55.7107 15.05017474449052
Epoch (UTC): 30 August 2016 04:52:21
Eccentricity: 0.0027324
inclination: 81.1746°
perigee height: 532 km
apogee height: 570 km
right ascension of ascending node: 247.8233°
argument of perigee: 304.1524°
revolutions per day: 15.05017474
mean anomaly at epoch: 55.7107°
orbit number at epoch: 44905

The dashed part of the orbit path shows where the satellite is in the earth's shadow,  

DLR